QPF
0.00 0.00 0.00 0.00 0.00 0.00 0.00 0.00 0.00 0.00 0.00 0.00 0.00 0.00 0.00 0.00 0.00 0.00 0.00 0.00 0.00 0.00 0.00 0.00 0.00 0.00 0.00 0.00 0.00 0.00 0.00 0.00 0.00 0.00 0.00 0.00 0.00 0.00 0.00 0.00 0.00 0.00 0.00 0.00 0.00 0.00 0.00 0.00 0.00
0.00 0.00 0.00 0.00 0.00 0.00 0.00 0.00 0.00 0.00 0.00 0.00 0.00 0.00 0.00 0.00 0.00 0.00 0.00 0.00 0.00 0.00 0.00 0.00 0.00 0.00 0.00 0.00 0.00 0.00 0.00 0.00 0.00 0.00 0.00 0.00 0.00 0.00 0.00 0.00 0.00 0.00 0.00 0.00 0.00 0.00 0.00 0.00 0.00
0.00 0.00 0.00 0.00 0.00 0.00 0.00 0.00 0.00 0.00 0.00 0.00 0.00 0.00 0.00 0.00 0.00 0.00 0.00 0.00 0.00 0.00 0.00 0.00 0.00 0.00 0.00 0.00 0.00 0.00 0.00 0.00 0.00 0.00 0.00 0.00 0.00 0.00 0.00 0.00 0.00 0.00 0.00 0.00 0.00 0.00 0.00 0.00 0.00
0.00 0.00 0.00 0.00 0.00 0.00 0.00 0.00 0.00 0.00 0.00 0.00 0.00 0.00 0.00 0.00 0.00 0.00 0.00 0.00 0.00 0.00 0.00 0.00 0.00 0.00 0.00 0.00 0.00 0.00 0.00 0.00 0.00 0.00 0.00 0.00 0.00 0.00 0.00 0.00 0.00 0.00 0.00 0.00 0.00 0.00 0.00 0.00 0.00
0.00 0.00 0.00 0.00 0.00 0.00 0.00 0.00 0.00 0.00 0.00 0.00 0.00 0.00 0.00 0.00 0.00 0.00 0.00 0.00 0.00 0.00 0.00 0.00 0.00 0.00 0.00 0.00 0.00 0.00 0.00 0.00 0.00 0.00 0.00 0.00 0.00 0.00 0.00 0.00 0.00 0.00 0.00 0.00 0.00 0.00 0.00 0.00 0.00
0.00 0.00 0.00 0.00 0.00 0.00 0.00 0.00 0.00 0.00 0.00 0.00 0.00 0.00 0.00 0.00 0.00 0.00 0.00 0.00 0.00 0.00 0.00 0.00 0.00 0.00 0.00 0.00 0.00 0.00 0.00 0.00 0.00 0.00 0.00 0.00 0.00 0.00 0.00 0.00 0.00 0.00 0.00 0.00 0.00 0.00 0.00 0.00 0.00
0.00 0.00 0.00 0.00 0.00 0.00 0.00 0.00 0.00 0.00 0.00 0.00 0.00 0.00 0.00 0.00 0.00 0.00 0.00 0.00 0.00 0.00 0.00 0.00 0.00 0.00 0.00 0.00 0.00 0.00 0.00 0.00 0.00 0.00 0.00 0.00 0.00 0.00 0.00 0.00 0.00 0.00 0.00 0.00 0.00 0.00 0.00 0.00 0.00
0.00 0.00 0.00 0.00 0.00 0.00 0.00 0.00 0.00 0.00 0.00 0.00 0.00 0.00 0.00 0.00 0.00 0.00 0.00 0.00 0.00 0.00 0.00 0.00 0.00 0.00 0.00 0.00 0.00 0.00 0.00 0.00 0.00 0.00 0.00 0.00 0.00 0.00 0.00 0.00 0.00 0.00 0.00 0.00 0.01 0.01 0.01 0.01 0.01
0.00 0.00 0.00 0.00 0.00 0.00 0.00 0.00 0.00 0.00 0.00 0.00 0.00 0.00 0.00 0.00 0.00 0.00 0.00 0.00 0.00 0.00 0.00 0.00 0.01 0.01 0.01 0.01 0.00 0.01 0.01 0.01 0.00 0.00 0.01 0.00 0.00 0.00 0.00 0.00 0.00 0.01 0.01 0.01 0.02 0.03 0.03 0.03 0.02
0.00 0.00 0.00 0.00 0.00 0.00 0.00 0.00 0.00 0.00 0.00 0.00 0.00 0.00 0.00 0.00 0.00 0.00 0.00 0.00 0.00 0.00 0.00 0.01 0.01 0.01 0.01 0.01 0.01 0.01 0.01 0.01 0.01 0.01 0.01 0.01 0.01 0.01 0.01 0.01 0.01 0.02 0.02 0.03 0.04 0.07 0.07 0.05 0.03
0.00 0.00 0.00 0.00 0.00 0.00 0.00 0.00 0.00 0.00 0.00 0.00 0.00 0.00 0.00 0.00 0.00 0.00 0.00 0.00 0.00 0.00 0.00 0.00 0.01 0.01 0.01 0.01 0.01 0.02 0.02 0.03 0.03 0.02 0.02 0.02 0.02 0.02 0.02 0.02 0.02 0.02 0.03 0.04 0.07 0.10 0.07 0.08 0.12
0.00 0.00 0.00 0.00 0.00 0.00 0.00 0.00 0.00 0.00 0.00 0.00 0.00 0.00 0.00 0.00 0.00 0.00 0.00 0.00 0.00 0.00 0.00 0.00 0.01 0.01 0.01 0.02 0.02 0.03 0.04 0.04 0.04 0.04 0.04 0.05 0.04 0.04 0.04 0.04 0.04 0.04 0.05 0.06 0.10 0.13 0.12 0.14 0.16
0.00 0.00 0.00 0.00 0.00 0.00 0.00 0.00 0.00 0.00 0.00 0.00 0.00 0.00 0.00 0.00 0.00 0.00 0.00 0.00 0.00 0.00 0.01 0.00 0.00 0.01 0.02 0.03 0.05 0.05 0.05 0.06 0.07 0.06 0.07 0.07 0.09 0.09 0.09 0.08 0.08 0.07 0.09 0.09 0.12 0.14 0.15 0.15 0.16
0.00 0.00 0.00 0.00 0.00 0.00 0.00 0.00 0.00 0.00 0.00 0.00 0.00 0.00 0.00 0.00 0.00 0.00 0.00 0.01 0.01 0.02 0.03 0.03 0.02 0.02 0.04 0.06 0.07 0.06 0.06 0.06 0.07 0.07 0.08 0.10 0.12 0.12 0.11 0.09 0.09 0.09 0.10 0.11 0.13 0.14 0.16 0.15 0.14
0.00 0.00 0.00 0.00 0.00 0.00 0.00 0.00 0.00 0.00 0.00 0.00 0.00 0.00 0.00 0.00 0.00 0.00 0.01 0.01 0.02 0.03 0.05 0.07 0.06 0.05 0.06 0.07 0.07 0.07 0.07 0.07 0.06 0.07 0.09 0.11 0.13 0.13 0.12 0.12 0.11 0.11 0.12 0.12 0.12 0.13 0.14 0.12 0.09
0.00 0.00 0.00 0.00 0.00 0.00 0.00 0.00 0.00 0.00 0.00 0.00 0.00 0.00 0.00 0.00 0.01 0.01 0.01 0.02 0.03 0.04 0.06 0.09 0.11 0.11 0.11 0.08 0.06 0.07 0.08 0.08 0.08 0.10 0.12 0.15 0.18 0.18 0.16 0.14 0.14 0.13 0.12 0.12 0.11 0.10 0.10 0.09 0.08
0.00 0.00 0.00 0.00 0.00 0.00 0.00 0.00 0.00 0.00 0.00 0.00 0.00 0.00 0.00 0.01 0.01 0.02 0.02 0.02 0.02 0.03 0.07 0.10 0.12 0.16 0.16 0.12 0.10 0.10 0.13 0.16 0.19 0.22 0.21 0.23 0.28 0.28 0.23 0.17 0.13 0.12 0.11 0.09 0.06 0.06 0.06 0.06 0.05
0.00 0.00 0.00 0.00 0.00 0.00 0.00 0.00 0.00 0.00 0.00 0.00 0.00 0.00 0.00 0.01 0.01 0.02 0.02 0.02 0.02 0.03 0.06 0.07 0.07 0.09 0.11 0.11 0.15 0.19 0.21 0.23 0.27 0.34 0.31 0.31 0.30 0.26 0.26 0.20 0.12 0.09 0.08 0.07 0.05 0.06 0.05 0.04 0.03
0.00 0.00 0.00 0.00 0.00 0.00 0.00 0.00 0.00 0.00 0.01 0.01 0.00 0.00 0.01 0.01 0.01 0.01 0.01 0.01 0.01 0.02 0.03 0.05 0.07 0.10 0.15 0.17 0.17 0.19 0.22 0.26 0.32 0.39 0.38 0.36 0.35 0.29 0.28 0.22 0.14 0.10 0.06 0.05 0.05 0.05 0.04 0.03 0.02
0.00 0.00 0.00 0.00 0.00 0.00 0.00 0.00 0.00 0.00 0.00 0.00 0.00 0.00 0.00 0.00 0.00 0.01 0.01 0.01 0.01 0.02 0.04 0.09 0.14 0.17 0.18 0.18 0.17 0.16 0.16 0.19 0.25 0.30 0.33 0.32 0.29 0.26 0.23 0.17 0.12 0.09 0.06 0.05 0.04 0.04 0.03 0.02 0.01
0.00 0.00 0.00 0.00 0.00 0.00 0.00 0.01 0.00 0.00 0.00 0.00 0.00 0.01 0.01 0.00 0.01 0.01 0.02 0.02 0.02 0.02 0.03 0.06 0.11 0.14 0.13 0.13 0.14 0.14 0.14 0.13 0.14 0.15 0.16 0.18 0.18 0.18 0.19 0.18 0.12 0.08 0.06 0.05 0.04 0.04 0.03 0.02 0.01
0.00 0.00 0.00 0.00 0.00 0.00 0.00 0.02 0.01 0.00 0.00 0.01 0.01 0.01 0.01 0.01 0.01 0.01 0.01 0.01 0.01 0.01 0.03 0.04 0.05 0.07 0.07 0.07 0.07 0.09 0.11 0.13 0.12 0.11 0.09 0.11 0.11 0.10 0.12 0.15 0.13 0.09 0.07 0.06 0.05 0.03 0.03 0.02 0.02
0.00 0.00 0.00 0.00 0.00 0.00 0.00 0.01 0.02 0.01 0.01 0.01 0.01 0.01 0.01 0.00 0.00 0.00 0.00 0.01 0.01 0.01 0.01 0.01 0.02 0.03 0.04 0.04 0.06 0.07 0.08 0.10 0.11 0.12 0.11 0.09 0.09 0.09 0.09 0.10 0.10 0.09 0.09 0.08 0.06 0.04 0.02 0.02 0.02
0.00 0.00 0.00 0.00 0.00 0.02 0.01 0.02 0.04 0.01 0.01 0.01 0.00 0.00 0.00 0.00 0.00 0.00 0.00 0.00 0.00 0.00 0.00 0.00 0.01 0.01 0.01 0.02 0.02 0.03 0.03 0.05 0.06 0.06 0.06 0.06 0.05 0.06 0.08 0.09 0.10 0.10 0.10 0.10 0.08 0.06 0.05 0.04 0.03
0.01 0.00 0.00 0.01 0.01 0.01 0.01 0.02 0.04 0.01 0.01 0.01 0.00 0.00 0.00 0.00 0.00 0.00 0.00 0.00 0.00 0.00 0.00 0.00 0.00 0.01 0.01 0.01 0.01 0.01 0.02 0.02 0.02 0.03 0.03 0.03 0.03 0.03 0.03 0.06 0.08 0.09 0.10 0.11 0.11 0.09 0.08 0.07 0.06
0.00 0.00 0.01 0.01 0.01 0.01 0.02 0.03 0.03 0.01 0.01 0.00 0.00 0.00 0.00 0.00 0.00 0.00 0.00 0.00 0.00 0.00 0.00 0.00 0.00 0.00 0.01 0.01 0.01 0.01 0.02 0.01 0.01 0.01 0.02 0.02 0.03 0.03 0.02 0.02 0.03 0.05 0.06 0.08 0.10 0.11 0.11 0.10 0.09
0.00 0.00 0.00 0.00 0.00 0.01 0.02 0.02 0.02 0.01 0.01 0.01 0.00 0.00 0.00 0.00 0.00 0.00 0.00 0.00 0.00 0.00 0.00 0.00 0.00 0.00 0.00 0.01 0.01 0.01 0.01 0.01 0.00 0.00 0.00 0.01 0.01 0.02 0.02 0.02 0.02 0.02 0.02 0.03 0.05 0.07 0.10 0.13 0.13
0.00 0.00 0.00 0.00 0.01 0.01 0.01 0.02 0.04 0.01 0.01 0.00 0.00 0.00 0.00 0.00 0.00 0.00 0.00 0.00 0.00 0.00 0.00 0.00 0.00 0.00 0.00 0.01 0.00 0.00 0.00 0.00 0.00 0.00 0.00 0.00 0.00 0.00 0.01 0.01 0.02 0.02 0.02 0.02 0.02 0.03 0.04 0.07 0.12
0.00 0.00 0.00 0.00 0.00 0.00 0.00 0.01 0.01 0.00 0.00 0.00 0.00 0.00 0.00 0.00 0.00 0.00 0.00 0.00 0.00 0.00 0.00 0.00 0.00 0.00 0.00 0.00 0.00 0.00 0.00 0.00 0.00 0.00 0.00 0.00 0.00 0.00 0.00 0.00 0.01 0.01 0.01 0.01 0.01 0.02 0.02 0.03 0.05
0.00 0.00 0.00 0.00 0.00 0.00 0.00 0.00 0.00 0.00 0.00 0.00 0.00 0.00 0.00 0.00 0.00 0.00 0.00 0.00 0.00 0.00 0.00 0.00 0.00 0.00 0.00 0.00 0.00 0.00 0.00 0.00 0.00 0.00 0.00 0.00 0.01 0.00 0.00 0.00 0.00 0.01 0.01 0.01 0.01 0.01 0.02 0.02 0.03
MSLP
1011.40 1011.90 1012.28 1012.46 1012.38 1012.03 1011.46 1010.74 1010.01 1009.38 1008.94 1008.72 1008.70 1008.83 1009.00 1009.14 1009.18 1009.11 1008.98 1008.86 1008.84 1009.00 1009.36 1009.90 1010.57 1011.24 1011.83 1012.26 1012.49 1012.56 1012.54 1012.51 1012.57 1012.77 1013.12 1013.59 1014.12 1014.61 1015.00 1015.27 1015.40 1015.45 1015.48 1015.53 1015.64 1015.83 1016.06 1016.29 1016.49
1011.40 1011.87 1012.18 1012.26 1012.06 1011.58 1010.88 1010.08 1009.28 1008.62 1008.18 1007.98 1008.00 1008.17 1008.40 1008.59 1008.69 1008.68 1008.61 1008.56 1008.60 1008.82 1009.23 1009.83 1010.54 1011.25 1011.89 1012.36 1012.64 1012.77 1012.80 1012.81 1012.89 1013.08 1013.41 1013.82 1014.26 1014.67 1014.99 1015.20 1015.31 1015.36 1015.42 1015.52 1015.70 1015.95 1016.23 1016.49 1016.68
1011.41 1011.83 1012.06 1012.03 1011.71 1011.12 1010.33 1009.46 1008.64 1007.98 1007.56 1007.40 1007.47 1007.69 1007.96 1008.20 1008.35 1008.39 1008.38 1008.37 1008.47 1008.73 1009.18 1009.80 1010.54 1011.28 1011.95 1012.47 1012.82 1013.00 1013.09 1013.16 1013.27 1013.46 1013.75 1014.10 1014.46 1014.78 1015.02 1015.16 1015.24 1015.30 1015.39 1015.55 1015.79 1016.09 1016.40 1016.68 1016.87
1011.44 1011.79 1011.92 1011.78 1011.35 1010.68 1009.84 1008.96 1008.15 1007.53 1007.16 1007.05 1007.17 1007.43 1007.74 1008.01 1008.19 1008.27 1008.29 1008.33 1008.46 1008.74 1009.21 1009.84 1010.58 1011.34 1012.02 1012.57 1012.97 1013.22 1013.37 1013.48 1013.62 1013.82 1014.08 1014.37 1014.66 1014.90 1015.07 1015.16 1015.22 1015.29 1015.41 1015.61 1015.90 1016.24 1016.58 1016.86 1017.02
1011.46 1011.72 1011.75 1011.51 1011.01 1010.29 1009.44 1008.59 1007.82 1007.27 1006.96 1006.91 1007.08 1007.37 1007.70 1007.99 1008.19 1008.29 1008.34 1008.40 1008.55 1008.85 1009.32 1009.94 1010.66 1011.39 1012.07 1012.64 1013.06 1013.35 1013.54 1013.70 1013.87 1014.07 1014.31 1014.56 1014.80 1014.98 1015.10 1015.17 1015.22 1015.30 1015.45 1015.68 1016.00 1016.36 1016.70 1016.97 1017.10
1011.43 1011.60 1011.53 1011.21 1010.66 1009.94 1009.12 1008.32 1007.64 1007.17 1006.93 1006.94 1007.13 1007.44 1007.77 1008.06 1008.26 1008.38 1008.45 1008.53 1008.70 1009.00 1009.45 1010.05 1010.73 1011.43 1012.08 1012.62 1013.04 1013.35 1013.57 1013.76 1013.94 1014.15 1014.38 1014.60 1014.80 1014.95 1015.05 1015.11 1015.17 1015.27 1015.44 1015.70 1016.03 1016.38 1016.71 1016.95 1017.06
1011.34 1011.41 1011.26 1010.88 1010.31 1009.61 1008.85 1008.13 1007.55 1007.16 1007.00 1007.04 1007.25 1007.55 1007.87 1008.14 1008.34 1008.46 1008.54 1008.65 1008.83 1009.14 1009.58 1010.14 1010.78 1011.42 1012.02 1012.52 1012.91 1013.21 1013.43 1013.62 1013.81 1014.01 1014.23 1014.45 1014.63 1014.77 1014.87 1014.94 1015.01 1015.13 1015.32 1015.58 1015.91 1016.25 1016.55 1016.75 1016.83
1011.16 1011.15 1010.92 1010.51 1009.95 1009.29 1008.61 1008.00 1007.51 1007.21 1007.10 1007.16 1007.36 1007.64 1007.92 1008.17 1008.35 1008.48 1008.59 1008.72 1008.93 1009.25 1009.68 1010.21 1010.79 1011.38 1011.91 1012.35 1012.70 1012.95 1013.15 1013.32 1013.50 1013.69 1013.90 1014.11 1014.29 1014.44 1014.55 1014.63 1014.72 1014.85 1015.05 1015.31 1015.61 1015.92 1016.19 1016.36 1016.41
1010.91 1010.81 1010.54 1010.12 1009.59 1009.00 1008.42 1007.91 1007.52 1007.29 1007.21 1007.28 1007.46 1007.69 1007.93 1008.14 1008.31 1008.45 1008.58 1008.75 1008.99 1009.33 1009.75 1010.26 1010.79 1011.31 1011.78 1012.15 1012.43 1012.63 1012.79 1012.93 1013.08 1013.25 1013.45 1013.64 1013.82 1013.97 1014.09 1014.19 1014.30 1014.44 1014.62 1014.87 1015.14 1015.42 1015.65 1015.78 1015.81
1010.60 1010.45 1010.16 1009.75 1009.28 1008.79 1008.32 1007.92 1007.61 1007.44 1007.39 1007.44 1007.58 1007.75 1007.94 1008.11 1008.27 1008.42 1008.58 1008.78 1009.06 1009.42 1009.85 1010.33 1010.82 1011.28 1011.67 1011.97 1012.18 1012.33 1012.43 1012.52 1012.64 1012.78 1012.95 1013.13 1013.30 1013.44 1013.57 1013.67 1013.78 1013.91 1014.08 1014.30 1014.54 1014.78 1014.98 1015.10 1015.12
1010.27 1010.09 1009.81 1009.46 1009.07 1008.70 1008.35 1008.06 1007.85 1007.73 1007.69 1007.72 1007.80 1007.92 1008.05 1008.18 1008.32 1008.48 1008.66 1008.90 1009.20 1009.57 1010.00 1010.45 1010.90 1011.30 1011.62 1011.86 1012.01 1012.09 1012.14 1012.19 1012.26 1012.36 1012.49 1012.64 1012.79 1012.93 1013.04 1013.13 1013.22 1013.34 1013.49 1013.67 1013.89 1014.10 1014.27 1014.38 1014.41
1009.97 1009.80 1009.56 1009.29 1009.03 1008.78 1008.58 1008.42 1008.30 1008.23 1008.19 1008.20 1008.23 1008.28 1008.36 1008.45 1008.57 1008.72 1008.91 1009.17 1009.48 1009.85 1010.26 1010.68 1011.08 1011.42 1011.68 1011.85 1011.94 1011.97 1011.97 1011.97 1011.99 1012.05 1012.15 1012.26 1012.37 1012.47 1012.56 1012.63 1012.70 1012.78 1012.90 1013.06 1013.24 1013.44 1013.61 1013.72 1013.77
1009.75 1009.61 1009.44 1009.28 1009.16 1009.08 1009.02 1008.99 1008.98 1008.96 1008.94 1008.92 1008.91 1008.91 1008.93 1008.98 1009.06 1009.20 1009.39 1009.63 1009.93 1010.27 1010.64 1011.01 1011.34 1011.62 1011.82 1011.94 1011.98 1011.97 1011.92 1011.88 1011.86 1011.88 1011.92 1011.99 1012.06 1012.12 1012.17 1012.20 1012.23 1012.28 1012.37 1012.50 1012.67 1012.86 1013.03 1013.18 1013.25
1009.62 1009.53 1009.46 1009.44 1009.48 1009.56 1009.67 1009.78 1009.86 1009.91 1009.91 1009.88 1009.84 1009.79 1009.76 1009.77 1009.82 1009.92 1010.07 1010.28 1010.54 1010.82 1011.13 1011.42 1011.68 1011.89 1012.03 1012.10 1012.10 1012.05 1011.97 1011.89 1011.84 1011.81 1011.80 1011.82 1011.84 1011.85 1011.85 1011.84 1011.83 1011.85 1011.91 1012.01 1012.17 1012.37 1012.57 1012.75 1012.88
1009.59 1009.56 1009.59 1009.71 1009.91 1010.16 1010.43 1010.68 1010.87 1010.98 1011.01 1010.98 1010.91 1010.83 1010.76 1010.73 1010.74 1010.80 1010.90 1011.05 1011.23 1011.44 1011.66 1011.86 1012.04 1012.18 1012.26 1012.28 1012.24 1012.16 1012.06 1011.95 1011.86 1011.79 1011.74 1011.70 1011.67 1011.64 1011.59 1011.53 1011.49 1011.47 1011.50 1011.59 1011.75 1011.96 1012.19 1012.42 1012.60
1009.63 1009.66 1009.80 1010.05 1010.40 1010.80 1011.22 1011.58 1011.86 1012.03 1012.09 1012.07 1011.99 1011.89 1011.79 1011.73 1011.70 1011.71 1011.75 1011.83 1011.93 1012.04 1012.16 1012.27 1012.37 1012.43 1012.45 1012.43 1012.36 1012.26 1012.14 1012.00 1011.87 1011.76 1011.67 1011.58 1011.51 1011.42 1011.33 1011.24 1011.16 1011.12 1011.12 1011.20 1011.36 1011.58 1011.84 1012.11 1012.35
1009.70 1009.79 1010.01 1010.38 1010.86 1011.39 1011.92 1012.38 1012.73 1012.94 1013.03 1013.01 1012.93 1012.81 1012.70 1012.61 1012.55 1012.52 1012.51 1012.52 1012.53 1012.55 1012.58 1012.60 1012.61 1012.60 1012.58 1012.52 1012.43 1012.31 1012.17 1012.01 1011.85 1011.70 1011.56 1011.43 1011.31 1011.19 1011.06 1010.95 1010.85 1010.78 1010.77 1010.84 1010.99 1011.21 1011.49 1011.80 1012.08
1009.78 1009.91 1010.20 1010.66 1011.23 1011.85 1012.46 1012.97 1013.36 1013.60 1013.69 1013.67 1013.59 1013.47 1013.35 1013.25 1013.18 1013.12 1013.07 1013.02 1012.97 1012.91 1012.86 1012.80 1012.75 1012.70 1012.63 1012.55 1012.45 1012.31 1012.15 1011.97 1011.78 1011.59 1011.41 1011.24 1011.09 1010.94 1010.80 1010.67 1010.56 1010.48 1010.46 1010.51 1010.65 1010.86 1011.14 1011.45 1011.75
1009.84 1010.00 1010.35 1010.87 1011.50 1012.17 1012.81 1013.34 1013.73 1013.96 1014.04 1014.01 1013.92 1013.80 1013.69 1013.60 1013.53 1013.46 1013.39 1013.31 1013.21 1013.10 1012.99 1012.88 1012.79 1012.71 1012.63 1012.54 1012.42 1012.28 1012.11 1011.91 1011.69 1011.47 1011.25 1011.06 1010.88 1010.72 1010.57 1010.45 1010.34 1010.26 1010.23 1010.27 1010.37 1010.55 1010.80 1011.09 1011.39
1009.87 1010.07 1010.47 1011.02 1011.68 1012.36 1012.99 1013.51 1013.86 1014.05 1014.10 1014.05 1013.94 1013.83 1013.73 1013.65 1013.60 1013.54 1013.48 1013.39 1013.27 1013.13 1013.00 1012.87 1012.75 1012.66 1012.58 1012.50 1012.39 1012.25 1012.07 1011.86 1011.62 1011.37 1011.13 1010.91 1010.73 1010.57 1010.44 1010.33 1010.24 1010.18 1010.15 1010.16 1010.23 1010.36 1010.55 1010.79 1011.05
1009.90 1010.14 1010.57 1011.15 1011.82 1012.49 1013.08 1013.54 1013.83 1013.96 1013.95 1013.86 1013.74 1013.62 1013.54 1013.48 1013.45 1013.43 1013.38 1013.30 1013.18 1013.05 1012.90 1012.77 1012.66 1012.58 1012.52 1012.45 1012.36 1012.24 1012.06 1011.84 1011.59 1011.33 1011.08 1010.86 1010.68 1010.54 1010.44 1010.37 1010.32 1010.27 1010.25 1010.24 1010.27 1010.34 1010.45 1010.60 1010.79
1009.95 1010.24 1010.71 1011.31 1011.97 1012.61 1013.15 1013.54 1013.75 1013.79 1013.72 1013.58 1013.43 1013.31 1013.23 1013.20 1013.20 1013.19 1013.17 1013.11 1013.01 1012.88 1012.75 1012.63 1012.54 1012.48 1012.44 1012.41 1012.35 1012.24 1012.08 1011.87 1011.62 1011.36 1011.11 1010.90 1010.74 1010.64 1010.58 1010.56 1010.56 1010.55 1010.54 1010.53 1010.52 1010.52 1010.54 1010.60 1010.68
1010.04 1010.39 1010.90 1011.53 1012.18 1012.78 1013.26 1013.57 1013.70 1013.66 1013.51 1013.32 1013.13 1012.99 1012.91 1012.90 1012.91 1012.94 1012.93 1012.89 1012.80 1012.69 1012.56 1012.46 1012.39 1012.35 1012.35 1012.34 1012.31 1012.24 1012.10 1011.91 1011.67 1011.42 1011.19 1011.00 1010.87 1010.81 1010.81 1010.85 1010.91 1010.96 1010.98 1010.97 1010.93 1010.88 1010.82 1010.78 1010.75
1010.20 1010.60 1011.16 1011.81 1012.45 1013.02 1013.44 1013.67 1013.72 1013.60 1013.39 1013.14 1012.91 1012.75 1012.66 1012.65 1012.67 1012.70 1012.71 1012.67 1012.58 1012.47 1012.36 1012.26 1012.20 1012.18 1012.20 1012.22 1012.22 1012.18 1012.07 1011.90 1011.69 1011.46 1011.24 1011.08 1010.99 1010.98 1011.04 1011.15 1011.27 1011.38 1011.45 1011.46 1011.42 1011.33 1011.22 1011.09 1010.97
1010.41 1010.87 1011.47 1012.13 1012.77 1013.31 1013.67 1013.84 1013.81 1013.63 1013.35 1013.05 1012.79 1012.60 1012.50 1012.47 1012.49 1012.52 1012.51 1012.47 1012.37 1012.25 1012.13 1012.02 1011.96 1011.95 1011.98 1012.02 1012.04 1012.02 1011.93 1011.79 1011.59 1011.38 1011.20 1011.06 1011.01 1011.05 1011.16 1011.33 1011.52 1011.69 1011.81 1011.87 1011.85 1011.76 1011.62 1011.45 1011.27
1010.68 1011.18 1011.81 1012.47 1013.10 1013.60 1013.92 1014.03 1013.94 1013.70 1013.38 1013.04 1012.75 1012.54 1012.41 1012.37 1012.37 1012.37 1012.35 1012.28 1012.17 1012.02 1011.88 1011.76 1011.68 1011.66 1011.68 1011.71 1011.74 1011.72 1011.65 1011.51 1011.34 1011.15 1010.98 1010.87 1010.84 1010.91 1011.07 1011.29 1011.53 1011.77 1011.95 1012.06 1012.08 1012.03 1011.90 1011.73 1011.53
1010.99 1011.51 1012.14 1012.79 1013.39 1013.85 1014.12 1014.18 1014.05 1013.77 1013.41 1013.05 1012.73 1012.50 1012.36 1012.29 1012.26 1012.25 1012.20 1012.10 1011.96 1011.79 1011.62 1011.47 1011.36 1011.31 1011.30 1011.31 1011.32 1011.29 1011.21 1011.08 1010.90 1010.72 1010.55 1010.45 1010.44 1010.53 1010.71 1010.96 1011.25 1011.53 1011.77 1011.94 1012.02 1012.03 1011.95 1011.83 1011.66
1011.34 1011.85 1012.45 1013.07 1013.61 1014.02 1014.23 1014.24 1014.08 1013.77 1013.40 1013.02 1012.69 1012.45 1012.29 1012.21 1012.17 1012.13 1012.05 1011.93 1011.77 1011.57 1011.36 1011.18 1011.03 1010.94 1010.88 1010.85 1010.82 1010.75 1010.65 1010.49 1010.30 1010.11 1009.94 1009.84 1009.82 1009.91 1010.09 1010.35 1010.66 1010.96 1011.24 1011.47 1011.62 1011.69 1011.70 1011.65 1011.56
1011.71 1012.19 1012.74 1013.28 1013.75 1014.09 1014.24 1014.20 1014.01 1013.68 1013.30 1012.93 1012.61 1012.36 1012.21 1012.12 1012.06 1012.00 1011.92 1011.78 1011.60 1011.38 1011.14 1010.92 1010.73 1010.58 1010.47 1010.38 1010.29 1010.17 1010.02 1009.82 1009.60 1009.38 1009.19 1009.07 1009.03 1009.10 1009.26 1009.51 1009.80 1010.11 1010.41 1010.67 1010.88 1011.02 1011.12 1011.16 1011.18
1012.09 1012.52 1012.99 1013.45 1013.83 1014.07 1014.15 1014.07 1013.84 1013.51 1013.14 1012.79 1012.48 1012.25 1012.10 1012.01 1011.95 1011.89 1011.80 1011.66 1011.46 1011.23 1010.97 1010.72 1010.49 1010.29 1010.11 1009.95 1009.79 1009.60 1009.38 1009.13 1008.87 1008.61 1008.39 1008.24 1008.17 1008.20 1008.33 1008.54 1008.80 1009.09 1009.38 1009.65 1009.88 1010.08 1010.25 1010.40 1010.52
Thickness
5833 5835 5836 5829 5823 5830 5834 5841 5848 5849 5854 5862 5862 5858 5852 5848 5840 5833 5853 5863 5858 5851 5841 5827 5822 5817 5813 5810 5807 5805 5802 5799 5796 5793 5790 5786 5783 5780 5777 5775 5772 5770 5769 5767 5765 5763 5761 5760 5758
5839 5838 5832 5829 5828 5830 5831 5844 5846 5850 5858 5864 5863 5858 5853 5853 5855 5851 5854 5857 5854 5848 5838 5828 5819 5815 5811 5808 5805 5802 5799 5796 5793 5790 5787 5784 5781 5779 5776 5773 5771 5769 5767 5765 5763 5762 5760 5758 5757
5839 5837 5831 5832 5833 5828 5830 5846 5850 5858 5865 5862 5858 5859 5854 5851 5852 5852 5855 5855 5850 5844 5835 5826 5817 5812 5809 5805 5802 5799 5796 5793 5790 5787 5784 5782 5779 5776 5774 5772 5770 5768 5766 5764 5762 5760 5758 5757 5755
5835 5831 5831 5830 5832 5840 5842 5850 5857 5857 5861 5863 5859 5853 5855 5856 5856 5856 5855 5852 5845 5838 5832 5823 5814 5809 5806 5803 5800 5796 5793 5790 5787 5784 5782 5779 5776 5774 5771 5770 5768 5766 5764 5762 5760 5758 5757 5755 5753
5834 5831 5828 5831 5836 5844 5852 5857 5859 5855 5854 5859 5858 5850 5848 5854 5859 5856 5851 5848 5842 5836 5831 5821 5812 5807 5804 5800 5797 5794 5791 5788 5785 5782 5779 5776 5774 5772 5769 5767 5765 5764 5762 5761 5759 5757 5755 5753 5751
5827 5830 5822 5825 5833 5842 5852 5858 5859 5855 5855 5857 5856 5850 5846 5853 5852 5850 5849 5845 5842 5836 5830 5819 5809 5805 5801 5797 5794 5791 5788 5784 5781 5779 5776 5774 5771 5769 5767 5765 5763 5761 5760 5758 5756 5755 5753 5751 5750
5823 5824 5821 5824 5826 5834 5845 5857 5855 5852 5851 5856 5860 5849 5847 5849 5852 5850 5845 5842 5840 5835 5829 5818 5810 5803 5798 5794 5791 5788 5785 5781 5778 5775 5773 5770 5768 5766 5764 5762 5760 5759 5757 5756 5754 5752 5751 5750 5748
5830 5824 5820 5824 5822 5828 5846 5854 5858 5854 5852 5863 5862 5848 5845 5848 5851 5848 5841 5837 5834 5831 5826 5817 5812 5805 5798 5793 5788 5784 5781 5778 5775 5772 5770 5767 5765 5763 5761 5760 5758 5756 5755 5753 5752 5751 5749 5748 5747
5825 5812 5812 5822 5822 5829 5843 5844 5853 5863 5856 5855 5857 5854 5854 5852 5848 5839 5833 5829 5825 5823 5821 5817 5812 5804 5799 5795 5788 5782 5777 5774 5771 5769 5767 5764 5765 5764 5761 5759 5756 5754 5752 5751 5750 5749 5748 5747 5746
5817 5806 5817 5828 5829 5831 5835 5837 5843 5849 5844 5842 5844 5846 5847 5844 5839 5833 5827 5821 5817 5814 5814 5813 5808 5801 5797 5793 5787 5783 5779 5775 5771 5770 5766 5763 5763 5762 5760 5758 5753 5751 5749 5748 5748 5747 5746 5745 5749
5816 5810 5821 5825 5830 5830 5830 5833 5840 5837 5831 5830 5832 5837 5838 5836 5833 5830 5826 5821 5816 5812 5809 5808 5802 5797 5793 5789 5785 5782 5779 5775 5770 5767 5763 5760 5759 5757 5756 5754 5752 5749 5747 5748 5748 5747 5748 5749 5750
5809 5813 5816 5820 5827 5825 5825 5828 5826 5822 5820 5830 5835 5837 5834 5831 5830 5827 5822 5818 5813 5809 5805 5804 5799 5793 5788 5785 5781 5777 5774 5770 5767 5762 5758 5756 5753 5752 5752 5751 5750 5748 5748 5747 5747 5747 5748 5748 5748
5802 5807 5814 5819 5821 5821 5819 5816 5814 5811 5818 5825 5828 5828 5825 5826 5825 5823 5820 5815 5809 5803 5800 5798 5793 5787 5782 5776 5773 5771 5768 5765 5762 5757 5754 5750 5749 5747 5747 5745 5744 5743 5744 5744 5743 5744 5745 5745 5746
5804 5805 5808 5813 5815 5814 5808 5806 5805 5800 5809 5810 5810 5811 5814 5814 5813 5811 5808 5804 5801 5797 5794 5792 5786 5781 5774 5770 5765 5762 5761 5757 5754 5752 5748 5745 5742 5741 5740 5739 5739 5739 5738 5739 5740 5741 5741 5742 5744
5800 5796 5801 5806 5808 5809 5807 5789 5783 5792 5798 5795 5794 5793 5794 5796 5796 5795 5795 5794 5793 5789 5787 5782 5778 5774 5768 5764 5760 5756 5754 5751 5748 5745 5741 5738 5736 5736 5735 5734 5735 5735 5734 5734 5735 5737 5737 5739 5741
5795 5792 5789 5794 5801 5803 5797 5774 5773 5786 5785 5780 5780 5780 5779 5778 5781 5781 5781 5781 5781 5779 5775 5771 5769 5764 5759 5755 5751 5748 5746 5744 5740 5737 5735 5733 5732 5730 5728 5728 5729 5729 5728 5730 5731 5732 5733 5735 5737
5788 5786 5785 5784 5793 5796 5792 5768 5764 5777 5776 5769 5769 5770 5769 5767 5768 5769 5770 5770 5769 5766 5763 5759 5756 5753 5749 5745 5742 5741 5737 5735 5733 5730 5729 5727 5725 5723 5721 5722 5723 5722 5724 5727 5728 5730 5730 5730 5731
5779 5784 5780 5777 5781 5784 5773 5759 5759 5765 5765 5761 5760 5760 5758 5757 5756 5758 5759 5759 5757 5755 5752 5749 5746 5743 5740 5737 5734 5732 5729 5727 5725 5723 5722 5720 5718 5715 5714 5715 5717 5718 5720 5721 5722 5723 5724 5725 5726
5781 5779 5775 5772 5776 5772 5761 5753 5752 5755 5755 5753 5753 5751 5750 5749 5750 5751 5750 5749 5747 5743 5740 5737 5735 5732 5729 5727 5724 5721 5719 5719 5717 5715 5714 5713 5711 5711 5709 5710 5711 5713 5715 5716 5717 5717 5718 5719 5722
5778 5774 5771 5767 5770 5767 5754 5748 5748 5748 5745 5745 5743 5742 5743 5743 5742 5741 5740 5739 5736 5732 5729 5726 5723 5721 5719 5717 5715 5712 5710 5709 5708 5707 5705 5705 5705 5705 5705 5705 5706 5708 5709 5710 5710 5710 5713 5716 5718
5776 5775 5772 5765 5763 5765 5756 5743 5743 5742 5742 5740 5740 5738 5738 5736 5734 5732 5731 5729 5726 5723 5720 5718 5714 5711 5709 5707 5706 5703 5701 5700 5698 5697 5697 5697 5697 5698 5698 5699 5701 5702 5703 5704 5704 5705 5705 5708 5713
5769 5779 5774 5766 5758 5758 5757 5742 5741 5740 5736 5735 5734 5734 5732 5729 5728 5726 5724 5721 5719 5716 5714 5710 5705 5702 5699 5697 5695 5693 5690 5689 5689 5688 5688 5688 5688 5688 5690 5691 5693 5693 5696 5697 5698 5702 5702 5702 5704
5773 5777 5774 5769 5763 5757 5756 5748 5737 5740 5733 5731 5730 5729 5727 5726 5723 5720 5718 5715 5713 5710 5707 5703 5698 5693 5690 5687 5685 5682 5682 5682 5682 5680 5678 5678 5679 5679 5680 5681 5683 5684 5685 5687 5689 5692 5694 5697 5699
5777 5773 5770 5769 5767 5742 5747 5743 5729 5736 5730 5730 5729 5726 5723 5721 5719 5716 5714 5710 5707 5704 5700 5696 5691 5686 5682 5679 5676 5672 5670 5669 5668 5667 5667 5668 5670 5669 5669 5669 5670 5671 5673 5674 5677 5681 5684 5687 5691
5774 5763 5747 5743 5742 5738 5747 5741 5723 5732 5732 5729 5726 5723 5721 5719 5715 5711 5708 5704 5701 5697 5693 5689 5683 5678 5674 5671 5667 5663 5660 5657 5655 5655 5656 5655 5657 5657 5656 5657 5656 5658 5659 5661 5664 5668 5672 5676 5679
5766 5762 5741 5726 5731 5741 5742 5732 5726 5731 5730 5728 5725 5723 5719 5715 5711 5707 5702 5698 5694 5690 5685 5680 5675 5670 5666 5662 5659 5655 5651 5649 5650 5648 5645 5644 5645 5645 5644 5643 5643 5644 5647 5649 5651 5654 5658 5663 5667
5763 5761 5763 5750 5743 5734 5736 5731 5725 5729 5726 5723 5720 5717 5713 5710 5706 5703 5698 5693 5688 5682 5677 5671 5665 5660 5656 5653 5649 5646 5643 5640 5638 5636 5633 5634 5633 5632 5631 5629 5630 5631 5633 5635 5637 5641 5643 5647 5652
5766 5761 5754 5744 5722 5720 5729 5726 5718 5717 5715 5716 5714 5710 5708 5705 5701 5697 5691 5686 5679 5674 5668 5662 5655 5649 5645 5642 5640 5639 5635 5631 5628 5625 5623 5621 5620 5618 5616 5616 5616 5617 5618 5620 5623 5627 5630 5633 5637
5755 5752 5747 5744 5734 5717 5713 5719 5724 5715 5712 5710 5710 5707 5702 5698 5694 5689 5683 5677 5670 5664 5658 5652 5646 5640 5636 5633 5630 5626 5623 5621 5618 5615 5612 5610 5608 5606 5604 5603 5603 5603 5604 5605 5607 5611 5615 5618 5623
5754 5745 5742 5728 5720 5721 5716 5716 5724 5719 5715 5710 5704 5701 5696 5690 5686 5680 5674 5667 5660 5653 5647 5641 5636 5631 5627 5624 5620 5616 5613 5609 5606 5604 5602 5598 5595 5593 5591 5590 5589 5589 5590 5591 5593 5595 5599 5603 5607